Alexandria, Egypt

9:23 AM EET on December 14, 2017 (GMT +0200)
Alexandria

Weather History for HEAX - August, 2013

Change the Weather History Date:

Wednesday, August 21, 2013

  Actual Average Record
Temperature  
Mean Temperature 83 °F -  
Max Temperature 89 °F 84 °F 91 °F (1999)
Min Temperature 77 °F 71 °F 68 °F (1997)
Cooling Degree Days 18    
Growing Degree Days 33 (Base 50)    
Moisture  
Dew Point 74 °F    
Average Humidity 75    
Maximum Humidity 89    
Minimum Humidity 54    
Precipitation  
Precipitation 0.00 in 0.00 in - ()
Sea Level Pressure  
Sea Level Pressure 29.80 in    
Wind  
Wind Speed 6 mph ()    
Max Wind Speed 12 mph    
Max Gust Speed -    
Visibility 6.2 miles    
Events      
Averages and records for this station are not official NWS values.
T = Trace of Precipitation, MM = Missing Value Source: Averaged Metar Reports

Daily Weather History Graph

Daily Weather History Graph

Search for Another Location

Airport or City:

Trip Planner

Search our weather history database for the weather conditions in past years. The results will help you decide how hot, cold, wet, or windy it might be!

Date:

Astronomy

Aug. 21, 2013 Rise Set
Actual Time 5:29 AM EET 6:36 PM EET
Civil Twilight 5:04 AM EET 7:01 PM EET
Nautical Twilight 4:34 AM EET 7:31 PM EET
Astronomical Twilight 4:03 AM EET 8:02 PM EET
Moon 6:40 PM EET (8/21) 5:41 AM EET (8/21)
Length of Visible Light 13h 57m
Length of Day
13h 06m
Full, 100% of the Moon is Illuminated
Aug 21
Full
Aug 28
Last Quarter
Sep 5
New
Sep 12
First Quarter
Sep 19
Full

Hourly Weather History & Observations

Time (EET) Temp. Heat Index Dew Point Humidity Pressure Visibility Wind Dir Wind Speed Gust Speed Precip Events Conditions
12:00 AM 78.8 °F - 73.4 °F 83% 29.80 in 6.2 mi NW 6.9 mph - N/A   Partly Cloudy
1:00 AM 78.8 °F - 73.4 °F 83% 29.77 in 6.2 mi NW 3.5 mph - N/A   Partly Cloudy
2:00 AM 78 °F - 74 °F 84% 29.78 in 6 mi NW 5.8 mph - -  
2:00 AM 78.8 °F - 73.4 °F 83% 29.77 in - NW 5.8 mph - N/A   Clear
3:00 AM 78.8 °F - 73.4 °F 83% 29.77 in - WNW 4.6 mph - N/A   Clear
4:00 AM 77.0 °F - 73.4 °F 89% 29.77 in - WNW 3.5 mph - N/A   Clear
5:00 AM 78.8 °F - 75.2 °F 89% 29.77 in 6.2 mi NW 6.9 mph - N/A   Partly Cloudy
6:00 AM 78.8 °F - 73.4 °F 83% 29.77 in 6.2 mi WNW 3.5 mph - N/A   Partly Cloudy
7:00 AM 80.6 °F 85.4 °F 73.4 °F 79% 29.77 in 6.2 mi NW 5.8 mph - N/A   Partly Cloudy
8:00 AM 82 °F - 74 °F 70% 29.81 in 6 mi NNW 4.6 mph - -   Partly Cloudy
8:00 AM 82.4 °F 88.2 °F 73.4 °F 74% 29.80 in 6.2 mi NNW 4.6 mph - N/A   Scattered Clouds
9:00 AM 78.8 °F - 75.2 °F 89% 29.80 in 6.2 mi NNW 4.6 mph - N/A   Scattered Clouds
10:00 AM 86.0 °F 95.1 °F 75.2 °F 70% 29.83 in 6.2 mi WNW 5.8 mph - N/A   Scattered Clouds
11:00 AM 86.0 °F 93.4 °F 73.4 °F 66% 29.83 in 6.2 mi NW 5.8 mph - N/A   Scattered Clouds
12:00 PM 87.8 °F 95.6 °F 73.4 °F 62% 29.83 in 6.2 mi NW 6.9 mph - N/A   Partly Cloudy
1:00 PM 89.6 °F 98.2 °F 73.4 °F 59% 29.80 in - NNW 9.2 mph - N/A   Clear
2:00 PM 89 °F - 75 °F 54% 29.82 in 6 mi NW 9.2 mph - -  
2:00 PM 87.8 °F 97.6 °F 75.2 °F 66% 29.80 in - NW 9.2 mph - N/A   Clear
3:00 PM 87.8 °F 97.6 °F 75.2 °F 66% 29.80 in - NNW 11.5 mph - N/A   Clear
4:00 PM 86.0 °F 95.1 °F 75.2 °F 70% 29.80 in - NNW 11.5 mph - N/A   Clear
5:00 PM 84.2 °F 90.9 °F 73.4 °F 70% 29.80 in 6.2 mi NNW 10.4 mph - N/A   Scattered Clouds
6:00 PM 82.4 °F 88.2 °F 73.4 °F 74% 29.80 in 6.2 mi NW 8.1 mph - N/A   Scattered Clouds
7:00 PM 80.6 °F 85.4 °F 73.4 °F 79% 29.80 in 6.2 mi NNW 6.9 mph - N/A   Partly Cloudy
8:00 PM 80 °F - 72 °F 71% 29.82 in 6 mi NNW 9.2 mph - -  
8:00 PM 80.6 °F 84.6 °F 71.6 °F 74% 29.80 in - NNW 9.2 mph - N/A   Clear
9:00 PM 80.6 °F 85.4 °F 73.4 °F 79% 29.80 in - North 9.2 mph - N/A   Clear
10:00 PM 78.8 °F - 73.4 °F 83% 29.80 in - North 6.9 mph - N/A   Clear
11:00 PM 78.8 °F - 71.6 °F 78% 29.80 in - NNW 8.1 mph - N/A   Clear